This demonstration page uses our WeatherBlox Daily Observations layout. Learn more.

Left ArrowRight Arrow

44.89941, -97.11507

Hourly Observations for June 28, 2022

Temp ( °F °C ) Dew Point ( °F °C ) Humidity (%) Winds ( mph kmh ) Pressure ( in mb ) Visibility ( mi km ) Precip ( " mm )
12:53 am 00:53 Clear 66 18.9 52 11.1 61 61 SSE 7 11 30.06 1018 10 16 0.00 0.00
1:53 am 01:53 Clear 65 18.3 53 11.7 66 66 S 9 15 30.05 1018 10 16 0.00 0.00
2:53 am 02:53 Clear 69 20.6 52 11.1 55 55 S 12 19 30.02 1017 10 16 0.00 0.00
3:53 am 03:53 Clear 67 19.4 53 11.7 61 61 SSE 13 20 30.02 1017 10 16 0.00 0.00
4:53 am 04:53 Clear 64 17.8 52 11.1 65 65 SSE 10 17 30.01 1016 10 16 0.00 0.00
5:53 am 05:53 Sunny 62 16.7 52 11.1 70 70 SSE 3 6 30.03 1017 10 16 0.00 0.00
6:53 am 06:53 Sunny 63 17.2 53 11.7 70 70 SSE 8 13 30.03 1017 10 16 0.00 0.00
7:53 am 07:53 Sunny 66 18.9 53 11.7 63 63 SE 5 7 30.04 1017 10 16 0.00 0.00
8:53 am 08:53 Sunny 69 20.6 53 11.7 57 57 S 5 7 30.04 1017 10 16 0.00 0.00
9:53 am 09:53 Sunny 74 23.3 52 11.1 46 46 Calm 30.05 1018 10 16 0.00 0.00
10:53 am 10:53 Sunny 78 25.6 53 11.7 42 42 VRB 5 7 30.04 1017 10 16 0.00 0.00
11:53 am 11:53 Sunny 81 27.2 52 11.1 37 37 VRB 5 7 30.05 1018 10 16 0.00 0.00
12:53 pm 12:53 Sunny 83 28.3 50 10 32 32 NNW 13 20 30.06 1018 10 16 0.00 0.00
1:53 pm 13:53 Mostly Sunny 84 28.9 49 9.4 30 30 N 8 13 30.06 1018 10 16 0.00 0.00
2:53 pm 14:53 Sunny 83 28.3 53 11.7 36 36 N 12 19 30.06 1018 10 16 0.00 0.00
3:53 pm 15:53 Sunny 83 28.3 52 11.1 34 34 NE 10 17 30.06 1018 10 16 0.00 0.00
4:53 pm 16:53 Sunny 82 27.8 51 10.6 34 34 N 8 13 30.06 1018 10 16 0.00 0.00
5:53 pm 17:53 Sunny 81 27.2 52 11.1 37 37 NE 8 13 30.06 1018 10 16 0.00 0.00
6:53 pm 18:53 Sunny 80 26.7 51 10.6 37 37 undefined N/A 30.05 1018 10 16 0.00 0.00
7:53 pm 19:53 Sunny 78 25.6 50 10 37 37 ENE 8 13 30.05 1018 10 16 0.00 0.00
8:53 pm 20:53 Sunny 74 23.3 52 11.1 46 46 ENE 8 13 30.05 1018 10 16 0.00 0.00
9:53 pm 21:53 Clear 70 21.1 53 11.7 55 55 ENE 6 9 30.07 1018 10 16 0.00 0.00
10:53 pm 22:53 Clear 69 20.6 51 10.6 53 53 ENE 6 9 30.08 1019 10 16 0.00 0.00
11:53 pm 23:53 Clear 66 18.9 51 10.6 59 59 ENE 6 9 30.08 1019 10 16 0.00 0.00

Powered by AerisWeather